AAU CUBESAT

导读

AAU CUBESAT是丹麦奥尔堡大学学生团队研发的1U标准立方星,是全球首批符合立方星标准的五颗卫星之一,于2003年6月30日由俄罗斯火箭搭载发射升空。作为立方星发展早期的里程碑作品,它尺寸仅10×10×10厘米、重约1千克,虽受规格限制科学任务有限,但推动了微小卫星技术小型化发展,还为高校航天人才培养提供了实践范本,开启了低成本航天探索的新方向。

Basic Information
目录编号:
27846
目录名称:
AAU CUBESAT
国际标识:
2003-031G
轨道中心:
EARTH
卫星名称:
AAU CUBESAT
卫星全名:
--
卫星状态:
在轨 (已飞行8477 天)
发射日期:
2003-06-30 UTC
国别 :
丹麦 (DK)
星等 :
--
This satellite is enrolled in the Space Conjunction Data Service (SCDS) and the current flight risk assessment level is: No High Risk
Orbit Information
数据来源 国际轨道数据
星历时间: 2026-09-14T07:06:34+0800
7小时前
查看轨道信息
半长轴: 7190.001km
偏心率: 0.0008038
轨道倾角: 98.688°
近地点辐角 264.589°
升交点赤经 264.406°
平近点角 95.438°
近地点: 806.084km
远地点: 817.644km
周期: 101.124分钟
每日圈数: 14.239979
Detailed Information
使用方式:
暂无
2D Orbit Map
3D Orbit Map
Orbit Altitude Analysis Chart
Orbit Inclination Analysis Chart
Orbit Comprehensive Analysis Chart
View Comprehensive Chart
Conjunction Data List
Event ID Objects TCA Miss Dist (km) Collision Risk Probability Collision Risk Index (CRI) Action
CDM_260909-162902-784604-225828
2026-09-09T
16:29:32+0000
1.114 km
极远距离
1.833464E-5 中风险 0.6
CDM_260908-110602-784604-215328
2026-09-08T
11:06:34+0000
1.268 km
极远距离
1.190032E-5 中风险 0.57
Miss Distance Evolution Trend with All Objects Subscribe to Flight Safety Assessment
Collision Probability Evolution Trend with All Objects Subscribe to Flight Safety Assessment